Tracking 22440 objects as of 27-Feb-2021
HD Live streaming from Space Station
objects crossing your sky now

METEOR PRIRODA

Track METEOR PRIRODA now!
10-day predictions
METEOR PRIRODA is classified as:


NORAD ID: 12585
Int'l Code: 1981-065A
Perigee: 496.9 km
Apogee: 516.5 km
Inclination: 97.6 °
Period: 94.6 minutes
Semi major axis: 6877 km
RCS: 4.6163 m2 (large)
Launch date: July 10, 1981
Source: Commonwealth of Independent States (former USSR) (CIS)
Launch site: TYURATAM MISSILE AND SPACE COMPLEX (TTMTR)
aabbcc
Your satellite tracking list
Your tracking list is empty




NASA's NSSDC Master Catalog

Two Line Element Set (TLE):
1 12585U 81065A   21057.90891691  .00000968  00000-0  45359-4 0  9992
2 12585  97.5681  53.6416 0014214   6.7365 353.4060 15.22084454161805
Source of the keplerian elements: AFSPC